| time (UTC) | temp C | wind direction | speed KPH | gust KPH | rain 1hr cm | rain 24hr cm | rain mn cm | humidity % | barometer mb |
| 20260906182004 | 35 | 234 | 0.0 | 4.8 | 0.00 | 0.05 | 0.00 | 46 | 1013.0 |
| 20260906181003 | 35 | 252 | 6.4 | 8.0 | 0.00 | 0.05 | 0.00 | 47 | 1013.5 |
| 20260906180003 | 35 | 264 | 3.2 | 6.4 | 0.00 | 0.05 | 0.00 | 47 | 1013.7 |
| 20260906175003 | 34 | 255 | 0.0 | 4.8 | 0.00 | 0.05 | 0.00 | 48 | 1014.0 |
| 20260906174004 | 33 | 265 | 3.2 | 4.8 | 0.00 | 0.05 | 0.00 | 50 | 1014.2 |
| 20260906173003 | 33 | 99 | 0.0 | 3.2 | 0.00 | 0.05 | 0.00 | 50 | 1014.3 |
| 20260906172003 | 33 | 243 | 0.0 | 3.2 | 0.00 | 0.05 | 0.00 | 53 | 1014.4 |
| 20260906171004 | 33 | 119 | 0.0 | 3.2 | 0.00 | 0.05 | 0.00 | 52 | 1014.5 |
| 20260906170003 | 33 | 200 | 0.0 | 3.2 | 0.00 | 0.05 | 0.00 | 51 | 1014.4 |
| 20260906165003 | 33 | 161 | 0.0 | 1.6 | 0.00 | 0.05 | 0.00 | 53 | 1014.7 |
| 20260906164003 | 33 | 148 | 0.0 | 4.8 | 0.00 | 0.05 | 0.00 | 54 | 1015.0 |
| 20260906163003 | 32 | 49 | 1.6 | 6.4 | 0.00 | 0.05 | 0.00 | 54 | 1015.0 |
| 20260906162004 | 32 | 147 | 1.6 | 3.2 | 0.00 | 0.05 | 0.00 | 56 | 1015.1 |
| 20260906161003 | 32 | 124 | 1.6 | 3.2 | 0.00 | 0.05 | 0.00 | 54 | 1015.1 |
| 20260906160004 | 32 | 217 | 0.0 | 4.8 | 0.00 | 0.05 | 0.00 | 54 | 1014.9 |
| 20260906155004 | 32 | 152 | 1.6 | 4.8 | 0.00 | 0.05 | 0.00 | 52 | 1015.0 |
| 20260906154003 | 33 | 154 | 0.0 | 6.4 | 0.00 | 0.05 | 0.00 | 51 | 1014.6 |
| 20260906153003 | 32 | 0 | 0.0 | 3.2 | 0.00 | 0.05 | 0.00 | 54 | 1014.6 |
| 20260906152003 | 32 | 141 | 3.2 | 6.4 | 0.00 | 0.05 | 0.00 | 54 | 1014.4 |
| 20260906151003 | 32 | 143 | 1.6 | 3.2 | 0.00 | 0.05 | 0.00 | 55 | 1014.4 |
| 20260906150004 | 32 | 64 | 0.0 | 3.2 | 0.00 | 0.05 | 0.00 | 55 | 1014.4 |
| 20260906145003 | 31 | 0 | 0.0 | 3.2 | 0.00 | 0.05 | 0.00 | 55 | 1014.7 |
| 20260906144004 | 31 | 161 | 3.2 | 8.0 | 0.00 | 0.05 | 0.00 | 56 | 1014.6 |
| 20260906143003 | 31 | 164 | 3.2 | 4.8 | 0.00 | 0.05 | 0.00 | 57 | 1014.5 |
| 20260906142004 | 30 | 112 | 1.6 | 3.2 | 0.00 | 0.05 | 0.00 | 57 | 1015.0 |
| 20260906141003 | 30 | 155 | 1.6 | 4.8 | 0.00 | 0.05 | 0.00 | 59 | 1014.7 |
| 20260906140003 | 29 | 90 | 0.0 | 1.6 | 0.00 | 0.05 | 0.00 | 62 | 1014.8 |
| 20260906135005 | 28 | 92 | 1.6 | 4.8 | 0.00 | 0.05 | 0.00 | 63 | 1015.0 |
| 20260906134003 | 28 | 108 | 0.0 | 3.2 | 0.00 | 0.05 | 0.00 | 65 | 1014.9 |
| 20260906133003 | 28 | 67 | 0.0 | 3.2 | 0.00 | 0.05 | 0.00 | 65 | 1014.6 |
| 20260906132003 | 28 | 81 | 0.0 | 1.6 | 0.00 | 0.05 | 0.00 | 64 | 1014.4 |
| 20260906131004 | 29 | 0 | 0.0 | 0.0 | 0.00 | 0.05 | 0.00 | 63 | 1014.5 |
| 20260906130002 | 28 | 0 | 0.0 | 0.0 | 0.00 | 0.05 | 0.00 | 64 | 1014.4 |
| 20260906125004 | 27 | 0 | 0.0 | 0.0 | 0.00 | 0.05 | 0.00 | 70 | 1014.4 |
| 20260906124003 | 26 | 0 | 0.0 | 0.0 | 0.00 | 0.05 | 0.00 | 74 | 1014.3 |
| 20260906122004 | 25 | 0 | 0.0 | 1.6 | 0.00 | 0.05 | 0.00 | 76 | 1014.3 |
| 20260906121003 | 25 | 0 | 0.0 | 1.6 | 0.00 | 0.05 | 0.00 | 76 | 1014.2 |
| 20260906120003 | 25 | 68 | 0.0 | 1.6 | 0.00 | 0.05 | 0.00 | 76 | 1014.2 |
| 20260906115004 | 25 | 0 | 0.0 | 0.0 | 0.00 | 0.05 | 0.00 | 76 | 1014.3 |
| 20260906114003 | 24 | 0 | 0.0 | 0.0 | 0.00 | 0.05 | 0.00 | 76 | 1014.1 |
| 20260906113003 | 23 | 0 | 0.0 | 0.0 | 0.00 | 0.05 | 0.00 | 79 | 1014.2 |
| 20260906112003 | 23 | 0 | 0.0 | 0.0 | 0.00 | 0.05 | 0.00 | 81 | 1014.1 |
| 20260906111004 | 23 | 0 | 0.0 | 0.0 | 0.00 | 0.05 | 0.00 | 82 | 1014.2 |
| 20260906110003 | 23 | 314 | 0.0 | 1.6 | 0.00 | 0.05 | 0.00 | 82 | 1014.0 |
| 20260906105004 | 23 | 0 | 0.0 | 0.0 | 0.00 | 0.05 | 0.00 | 82 | 1014.2 |
| 20260906104003 | 23 | 331 | 1.6 | 1.6 | 0.00 | 0.05 | 0.00 | 81 | 1014.1 |
| 20260906103004 | 23 | 0 | 0.0 | 3.2 | 0.00 | 0.05 | 0.00 | 80 | 1014.1 |
| 20260906102004 | 24 | 0 | 0.0 | 0.0 | 0.00 | 0.05 | 0.00 | 79 | 1014.0 |
| 20260906101003 | 24 | 0 | 0.0 | 0.0 | 0.00 | 0.05 | 0.00 | 78 | 1013.9 |
| 20260906100003 | 25 | 0 | 0.0 | 0.0 | 0.00 | 0.05 | 0.00 | 76 | 1013.8 |
| 20260906095003 | 25 | 352 | 0.0 | 1.6 | 0.00 | 0.05 | 0.00 | 76 | 1013.8 |
| 20260906094004 | 25 | 0 | 0.0 | 0.0 | 0.00 | 0.05 | 0.00 | 77 | 1013.7 |
| 20260906093004 | 25 | 0 | 0.0 | 0.0 | 0.00 | 0.05 | 0.00 | 77 | 1013.6 |
| 20260906092003 | 25 | 0 | 0.0 | 1.6 | 0.00 | 0.05 | 0.00 | 75 | 1013.6 |
| 20260906091004 | 25 | 0 | 0.0 | 0.0 | 0.00 | 0.05 | 0.00 | 77 | 1013.5 |
| 20260906090004 | 25 | 0 | 0.0 | 0.0 | 0.00 | 0.05 | 0.00 | 77 | 1013.4 |
| 20260906085003 | 25 | 0 | 0.0 | 0.0 | 0.00 | 0.05 | 0.00 | 75 | 1013.1 |
| 20260906084004 | 26 | 0 | 0.0 | 0.0 | 0.00 | 0.05 | 0.00 | 73 | 1013.3 |
| 20260906083004 | 25 | 0 | 0.0 | 0.0 | 0.00 | 0.05 | 0.00 | 73 | 1013.1 |
| 20260906082004 | 25 | 0 | 0.0 | 0.0 | 0.00 | 0.05 | 0.00 | 74 | 1013.2 |
| 20260906081003 | 25 | 0 | 0.0 | 0.0 | 0.00 | 0.05 | 0.00 | 74 | 1013.1 |
| 20260906080003 | 25 | 0 | 0.0 | 0.0 | 0.00 | 0.05 | 0.00 | 73 | 1013.1 |
| 20260906075004 | 25 | 0 | 0.0 | 0.0 | 0.00 | 0.05 | 0.00 | 75 | 1013.2 |
| 20260906074003 | 25 | 0 | 0.0 | 0.0 | 0.00 | 0.05 | 0.00 | 77 | 1013.1 |
| 20260906073003 | 25 | 0 | 0.0 | 0.0 | 0.00 | 0.05 | 0.00 | 75 | 1013.3 |
| 20260906072003 | 25 | 0 | 0.0 | 0.0 | 0.10 | 0.05 | 0.00 | 75 | 1013.3 |
| 20260906071004 | 26 | 0 | 0.0 | 0.0 | 0.18 | 0.00 | 0.00 | 76 | 1013.2 |
| 20260906070004 | 26 | 0 | 0.0 | 0.0 | 0.00 | 0.00 | 0.00 | 73 | 1013.3 |
| 20260906065004 | 27 | 0 | 0.0 | 0.0 | 0.00 | 0.00 | 0.00 | 70 | 1013.6 |
| 20260906064004 | 27 | 0 | 0.0 | 0.0 | 0.00 | 0.00 | 0.00 | 67 | 1013.2 |
| 20260906063004 | 27 | 0 | 0.0 | 0.0 | 0.00 | 0.00 | 0.00 | 67 | 1013.5 |
| 20260906062003 | 27 | 0 | 0.0 | 0.0 | 0.00 | 0.00 | 0.00 | 65 | 1013.3 |
| 20260906061004 | 28 | 115 | 0.0 | 3.2 | 0.00 | 0.00 | 0.00 | 65 | 1013.3 |
| 20260906060004 | 28 | 145 | 0.0 | 1.6 | 0.00 | 0.00 | 0.00 | 65 | 1013.4 |
| 20260906055004 | 28 | 0 | 0.0 | 0.0 | 0.00 | 0.00 | 0.00 | 64 | 1013.4 |
| 20260906054004 | 28 | 0 | 0.0 | 0.0 | 0.00 | 0.00 | 0.00 | 63 | 1013.5 |
| 20260906053004 | 28 | 126 | 1.6 | 3.2 | 0.00 | 0.00 | 0.00 | 63 | 1013.1 |
| 20260906052003 | 28 | 152 | 1.6 | 3.2 | 0.00 | 0.00 | 0.00 | 63 | 1013.5 |
| 20260906051003 | 28 | 0 | 0.0 | 0.0 | 0.00 | 0.00 | 0.00 | 64 | 1013.5 |
| 20260906050003 | 28 | 0 | 0.0 | 0.0 | 0.00 | 0.00 | 0.00 | 64 | 1013.5 |
| 20260906045003 | 28 | 0 | 0.0 | 0.0 | 0.00 | 0.00 | 0.00 | 63 | 1013.3 |
| 20260906044004 | 28 | 0 | 0.0 | 0.0 | 0.00 | 0.00 | 0.00 | 63 | 1013.5 |
| 20260906043004 | 29 | 0 | 0.0 | 0.0 | 0.00 | 0.00 | 0.00 | 62 | 1013.3 |
| 20260906042003 | 29 | 0 | 0.0 | 0.0 | 0.00 | 0.00 | 0.00 | 61 | 1013.3 |
| 20260906041003 | 29 | 133 | 0.0 | 1.6 | 0.00 | 0.00 | 0.00 | 61 | 1013.3 |
| 20260906040003 | 30 | 0 | 0.0 | 1.6 | 0.00 | 0.00 | 0.00 | 61 | 1013.0 |
| 20260906035004 | 30 | 0 | 0.0 | 0.0 | 0.00 | 0.00 | 0.00 | 60 | 1013.1 |
| 20260906034003 | 30 | 139 | 1.6 | 3.2 | 0.00 | 0.00 | 0.00 | 58 | 1013.0 |
| 20260906033003 | 30 | 136 | 1.6 | 3.2 | 0.00 | 0.00 | 0.00 | 57 | 1012.7 |
| 20260906032003 | 31 | 0 | 0.0 | 1.6 | 0.00 | 0.00 | 0.00 | 56 | 1012.6 |
| 20260906031004 | 31 | 0 | 0.0 | 1.6 | 0.00 | 0.00 | 0.00 | 56 | 1012.6 |
| 20260906030004 | 31 | 0 | 0.0 | 1.6 | 0.00 | 0.00 | 0.00 | 55 | 1012.2 |
| 20260906025003 | 31 | 89 | 1.6 | 6.4 | 0.00 | 0.00 | 0.00 | 53 | 1012.3 |
| 20260906024003 | 32 | 50 | 3.2 | 6.4 | 0.00 | 0.00 | 0.00 | 53 | 1012.1 |
| 20260906023003 | 31 | 139 | 1.6 | 4.8 | 0.00 | 0.00 | 0.00 | 53 | 1011.9 |
| 20260906022004 | 32 | 93 | 0.0 | 3.2 | 0.00 | 0.00 | 0.00 | 53 | 1011.8 |
| 20260906021003 | 32 | 76 | 3.2 | 6.4 | 0.00 | 0.00 | 0.00 | 52 | 1011.6 |
| 20260906020003 | 32 | 37 | 1.6 | 4.8 | 0.00 | 0.00 | 0.00 | 52 | 1011.5 |
| 20260906015003 | 32 | 66 | 0.0 | 3.2 | 0.00 | 0.00 | 0.00 | 51 | 1011.2 |
| 20260906014004 | 32 | 0 | 0.0 | 1.6 | 0.00 | 0.00 | 0.00 | 50 | 1011.2 |
| 20260906013005 | 32 | 79 | 1.6 | 3.2 | 0.00 | 0.00 | 0.00 | 48 | 1011.1 |
| 20260906012004 | 31 | 0 | 0.0 | 1.6 | 0.00 | 0.00 | 0.00 | 52 | 1011.2 |
| 20260906011004 | 32 | 0 | 0.0 | 0.0 | 0.00 | 0.00 | 0.00 | 50 | 1010.9 |
| 20260906010004 | 32 | 0 | 0.0 | 0.0 | 0.00 | 0.00 | 0.00 | 50 | 1010.5 |
| 20260906005004 | 33 | 0 | 0.0 | 0.0 | 0.00 | 0.00 | 0.00 | 47 | 1010.7 |
| 20260906004003 | 33 | 0 | 0.0 | 0.0 | 0.00 | 0.00 | 0.00 | 45 | 1010.8 |
| 20260906003003 | 33 | 0 | 0.0 | 1.6 | 0.00 | 0.00 | 0.00 | 44 | 1011.1 |
| 20260906002003 | 34 | 0 | 0.0 | 1.6 | 0.00 | 0.00 | 0.00 | 43 | 1010.5 |
| 20260906001003 | 35 | 0 | 0.0 | 0.0 | 0.00 | 0.00 | 0.00 | 44 | 1010.6 |
| 20260906000003 | 36 | 0 | 0.0 | 0.0 | 0.00 | 0.00 | 0.00 | 41 | 1010.4 |
| 20260905235004 | 36 | 239 | 0.0 | 1.6 | 0.00 | 0.00 | 0.00 | 38 | 1010.4 |
| 20260905234003 | 36 | 0 | 0.0 | 1.6 | 0.00 | 0.00 | 0.00 | 36 | 1010.5 |
| 20260905233003 | 36 | 0 | 0.0 | 3.2 | 0.00 | 0.00 | 0.00 | 35 | 1010.5 |
| 20260905232004 | 36 | 0 | 0.0 | 0.0 | 0.00 | 0.00 | 0.00 | 35 | 1010.6 |
| 20260905231003 | 37 | 227 | 3.2 | 4.8 | 0.00 | 0.00 | 0.00 | 33 | 1010.3 |
| 20260905230003 | 37 | 253 | 0.0 | 4.8 | 0.00 | 0.00 | 0.00 | 34 | 1010.0 |
| 20260905225003 | 37 | 248 | 1.6 | 3.2 | 0.00 | 0.00 | 0.00 | 32 | 1010.0 |
| 20260905224004 | 37 | 134 | 0.0 | 8.0 | 0.00 | 0.00 | 0.00 | 34 | 1010.0 |
| 20260905223003 | 37 | 169 | 0.0 | 6.4 | 0.00 | 0.00 | 0.00 | 32 | 1010.1 |
| 20260905222004 | 37 | 158 | 0.0 | 1.6 | 0.00 | 0.00 | 0.00 | 33 | 1010.6 |
| 20260905221003 | 38 | 0 | 0.0 | 1.6 | 0.00 | 0.00 | 0.00 | 32 | 1010.3 |
| 20260905220003 | 37 | 258 | 3.2 | 6.4 | 0.00 | 0.00 | 0.00 | 32 | 1010.5 |
| 20260905215003 | 38 | 246 | 1.6 | 6.4 | 0.00 | 0.00 | 0.00 | 31 | 1010.5 |
| 20260905214004 | 38 | 93 | 1.6 | 4.8 | 0.00 | 0.00 | 0.00 | 32 | 1010.6 |
| 20260905213003 | 38 | 129 | 3.2 | 8.0 | 0.00 | 0.00 | 0.00 | 33 | 1010.5 |
| 20260905212004 | 38 | 47 | 3.2 | 6.4 | 0.00 | 0.00 | 0.00 | 33 | 1010.7 |
| 20260905211003 | 38 | 281 | 3.2 | 4.8 | 0.00 | 0.00 | 0.00 | 32 | 1010.9 |
| 20260905210003 | 38 | 136 | 3.2 | 4.8 | 0.00 | 0.00 | 0.00 | 33 | 1010.8 |
| 20260905205003 | 38 | 157 | 0.0 | 4.8 | 0.00 | 0.00 | 0.00 | 33 | 1011.1 |
| 20260905204004 | 38 | 0 | 0.0 | 4.8 | 0.00 | 0.00 | 0.00 | 34 | 1011.1 |
| 20260905203004 | 38 | 242 | 1.6 | 4.8 | 0.00 | 0.00 | 0.00 | 33 | 1011.5 |
| 20260905202003 | 37 | 126 | 3.2 | 4.8 | 0.00 | 0.00 | 0.00 | 33 | 1011.5 |
| 20260905201004 | 38 | 189 | 3.2 | 6.4 | 0.00 | 0.00 | 0.00 | 34 | 1011.5 |
| 20260905200004 | 38 | 0 | 0.0 | 4.8 | 0.00 | 0.00 | 0.00 | 35 | 1011.9 |
| 20260905195004 | 37 | 244 | 3.2 | 9.7 | 0.00 | 0.00 | 0.00 | 35 | 1012.0 |
| 20260905194004 | 37 | 294 | 4.8 | 8.0 | 0.00 | 0.00 | 0.00 | 35 | 1011.9 |
| 20260905193004 | 38 | 239 | 4.8 | 9.7 | 0.00 | 0.00 | 0.00 | 35 | 1011.9 |
| 20260905192004 | 37 | 80 | 1.6 | 4.8 | 0.00 | 0.00 | 0.00 | 36 | 1012.3 |
| 20260905191003 | 37 | 239 | 1.6 | 8.0 | 0.00 | 0.00 | 0.00 | 36 | 1012.0 |
| 20260905190004 | 37 | 245 | 3.2 | 6.4 | 0.00 | 0.00 | 0.00 | 35 | 1012.2 |
| 20260905185003 | 37 | 244 | 0.0 | 4.8 | 0.00 | 0.00 | 0.00 | 38 | 1012.6 |
| 20260905184003 | 37 | 202 | 6.4 | 9.7 | 0.00 | 0.00 | 0.00 | 36 | 1012.6 |
| 20260905183003 | 36 | 276 | 6.4 | 14.5 | 0.00 | 0.00 | 0.00 | 37 | 1012.6 |